Station BSLM2 - Jug Bay, Chesapeake Bay Reserve, MD Image indicating link to RSS feed of recent meteorological observations for station BSLM2


Conditions at BSLM2 as of
(6:30 pm EST)
2330 GMT on 12/06/2023:
     

Click on the graph icon in the table below to see a time series plot of the last five days of that observation.

5-day plot - Wind Direction Wind Direction (WDIR): NW ( 310 deg true )
5-day plot - Wind Speed Wind Speed (WSPD): 5.1 kts
5-day plot - Atmospheric Pressure Atmospheric Pressure (PRES):30.09 in
5-day plot - Air Temperature Air Temperature (ATMP): 40.8 °F
5-day plot - Dew Point Dew Point (DEWP): 25.2 °F
5-day plot - Wind Chill Wind Chill (CHILL): 36.9 °F
5-day plot -  Wind Speed, Wind Gust and Atmospheric Pressure Combined plot of Wind Speed, Gust, and Air Pressure
Previous observations
TIME
(EST)
5-day plot - Wind Direction
WDIR
 
5-day plot - Wind Speed
WSPD
kts
5-day plot - Wind Gust
GST
kts
5-day plot - Wave Height
WVHT
ft
5-day plot - Dominant Wave Period
DPD
sec
5-day plot - Average Wave Period
APD
sec
5-day plot - Mean Wave Direction
MWD
 
5-day plot - Atmospheric Pressure
PRES
in
5-day plot - Pressure Tendency
PTDY
in
5-day plot - Air Temperature
ATMP
°F
5-day plot - Water Temperature
WTMP
°F
5-day plot - Dew Point
DEWP
°F
5-day plot - Salinity
SAL
psu
5-day plot - Visibility
VIS
nmi
5-day plot - Tide (above MLLW)
TIDE
ft
2023-12-06 06:15 pm NW 5.1-----30.09- 40.8- 25.5---
2023-12-06 06:00 pmWNW 2.9-----30.09+0.06 40.6- 25.9---
2023-12-06 05:45 pm NW 2.9-----30.06- 40.6- 25.9---
2023-12-06 05:30 pm NW 4.1-----30.06- 40.8- 25.5---
2023-12-06 05:15 pm NW 5.1-----30.06- 41.2- 25.3---
2023-12-06 05:00 pm NW 5.1-----30.06+0.03 41.5- 25.3---
2023-12-06 04:45 pm NW 5.1-----30.06- 41.2- 26.8---
2023-12-06 04:30 pmNNW 4.1-----30.06- 41.4- 27.3---
2023-12-06 04:15 pmNNW 6.0-----30.06- 42.1- 27.7---
2023-12-06 04:00 pmNNW 7.0-----30.03+0.00 42.3- 27.7---
2023-12-06 03:45 pm NW 8.9-----30.03- 42.4- 27.5---
2023-12-06 03:30 pm NW 7.0-----30.03- 42.4- 28.4---
2023-12-06 03:15 pm NW 7.0-----30.03- 42.8- 27.9---
2023-12-06 03:00 pmNNW 7.0-----30.03+0.00 43.0- 27.5---
2023-12-06 02:45 pmNNW 7.0-----30.03- 43.2- 28.6---
2023-12-06 02:30 pmNNW 7.0-----30.03- 42.6- 28.9---
2023-12-06 02:15 pmNNW 6.0-----30.03- 42.3- 29.8---
2023-12-06 02:00 pm N 7.0-----30.03-0.03 42.4- 29.7---
2023-12-06 01:45 pm N 6.0-----30.03- 42.6- 28.9---
2023-12-06 01:30 pmNNW 6.0-----30.03- 41.9- 29.5---
2023-12-06 01:15 pmNNW 7.0-----30.03- 41.5- 28.8---
2023-12-06 01:00 pmNNW 8.0-----30.03-0.03 41.7- 28.9---
2023-12-06 12:45 pmNNW 6.0-----30.03- 42.1- 28.9---
2023-12-06 12:30 pmNNW 5.1-----30.03- 41.9- 30.4---
2023-12-06 12:15 pmNNW 5.1-----30.03- 41.7- 30.9---
2023-12-06 12:00 pmNNW 6.0-----30.03+0.00 42.1- 30.9---
2023-12-06 11:45 am NW 6.0-----30.03- 42.8- 31.1---
2023-12-06 11:30 amNNW 6.0-----30.03- 43.0- 31.3---
2023-12-06 11:15 amNNW 7.0-----30.06- 43.0- 31.3---
2023-12-06 11:00 am NW 6.0-----30.06+0.03 42.6- 31.8---
2023-12-06 10:45 amNNW 5.1-----30.06- 42.4- 32.4---
2023-12-06 10:30 amNNW 4.1-----30.06- 41.9- 32.2---
2023-12-06 10:15 amNNW 4.1-----30.06- 41.5- 32.2---
2023-12-06 10:00 am NW 5.1-----30.06+0.06 41.2- 32.2---
2023-12-06 09:45 amNNW 5.1-----30.06- 40.6- 32.4---
2023-12-06 09:30 amNNW 4.1-----30.06- 40.3- 32.4---
2023-12-06 09:15 amNNW 5.1-----30.06- 39.9- 32.0---
2023-12-06 09:00 amNNW 4.1-----30.03+0.06 39.7- 32.2---
2023-12-06 08:45 amNNW 5.1-----30.03- 39.6- 32.4---
2023-12-06 08:30 am N 5.1-----30.03- 39.4- 32.9---
2023-12-06 08:15 am N 5.1-----30.03- 39.2- 32.9---
2023-12-06 08:00 amNNW 5.1-----30.03+0.06 39.0- 33.8---
2023-12-06 07:45 amNNW 5.1-----30.03- 39.0- 34.3---
2023-12-06 07:30 amNNW 4.1-----30.00- 38.8- 34.5---
2023-12-06 07:15 amNNW 2.9-----30.00- 38.8- 34.5---
2023-12-06 07:00 amNNW 2.9-----30.00+0.03 38.8- 35.1---
2023-12-06 06:45 amNNW 1.9-----30.00- 38.8- 35.2---
2023-12-06 06:30 amNNW 1.9-----30.00- 38.7- 35.4---
2023-12-06 06:15 amNNW 1.9-----30.00- 38.7- 35.8---
2023-12-06 06:00 amNNW 2.9-----29.97+0.00 38.8- 35.6---
2023-12-06 05:45 amNNW 2.9-----29.97- 38.8- 35.2---
2023-12-06 05:30 amNNW 2.9-----29.97- 39.0- 35.2---
2023-12-06 05:15 amNNW 4.1-----29.97- 39.2- 35.4---
2023-12-06 05:00 am N 2.9-----29.97+0.03 39.7- 35.4---
2023-12-06 04:45 am N 2.9-----29.97- 39.7- 35.4---
2023-12-06 04:30 am N 1.9-----29.94- 39.7- 35.4---
2023-12-06 04:15 am N 2.9-----29.94- 39.7- 35.6---
2023-12-06 04:00 am N 1.9-----29.97+0.00 39.7- 36.0---
2023-12-06 03:45 am N 1.9-----29.97- 39.9- 36.1---
2023-12-06 03:30 am N 2.9-----29.97- 39.9- 35.8---
2023-12-06 03:15 am N 1.9-----29.97- 39.2- 36.0---
2023-12-06 03:00 amNNW 1.0-----29.97+0.00 39.2- 36.0---
2023-12-06 02:45 amNNW 1.0-----29.97- 39.0- 35.8---
2023-12-06 02:30 amNNW 1.0-----29.94- 38.8- 35.6---
2023-12-06 02:15 amNNW 1.0-----29.94- 38.8- 36.0---
2023-12-06 02:00 amNNW 1.0-----29.94-0.03 38.7- 35.2---
2023-12-06 01:45 amNNW 1.0-----29.94- 38.3- 34.9---
2023-12-06 01:30 am NW 1.0-----29.94- 38.1- 35.2---
2023-12-06 01:15 am- 0.0-----29.97- 37.8- 35.1---
2023-12-06 01:00 am NW 1.0-----29.97+0.00 37.9- 35.1---
2023-12-06 12:45 amNNW 1.0-----29.97- 38.1- 34.9---
2023-12-06 12:30 am- 0.0-----29.97- 37.6- 34.9---
2023-12-06 12:15 am- 0.0-----29.97- 37.4- 34.7---
2023-12-06 12:00 am- 0.0-----29.97-0.03 37.6- 34.9---
2023-12-05 11:45 pm- 0.0-----29.97- 37.6- 34.7---
2023-12-05 11:30 pmNNW 1.0-----29.97- 37.9- 35.1---
2023-12-05 11:15 pm NW 1.0-----29.97- 37.4- 34.7---
2023-12-05 11:00 pmNNW 1.9-----29.97-0.03 37.8- 34.9---
2023-12-05 10:45 pm N 2.9-----29.97- 37.6- 34.9---
2023-12-05 10:30 pmNNW 1.9-----29.97- 37.0- 35.2---
2023-12-05 10:15 pmNNW 1.9-----29.97- 37.0- 34.9---
2023-12-05 10:00 pmNNW 1.9-----29.97-0.03 37.2- 34.9---
2023-12-05 09:45 pm N 1.9-----29.97- 38.1- 34.9---
2023-12-05 09:30 pm- 0.0-----30.00- 37.8- 33.6---
2023-12-05 09:15 pmWNW 1.0-----30.00- 38.1- 34.9---
2023-12-05 09:00 pm N 1.0-----30.00+0.00 39.0- 35.2---
2023-12-05 08:45 pm- 0.0-----30.00- 39.0- 35.2---
2023-12-05 08:30 pmWNW 1.0-----30.00- 39.6- 35.2---
2023-12-05 08:15 pm- 0.0-----30.00- 41.0- 35.4---
2023-12-05 08:00 pm N 1.0-----30.00+0.00 41.0- 35.6---
2023-12-05 07:45 pm N 1.0-----30.00- 41.0- 35.6---
2023-12-05 07:30 pm- 0.0-----30.00- 41.0- 35.6---
2023-12-05 07:15 pm- 0.0-----30.00- 40.8- 35.2---
2023-12-05 07:00 pm- 0.0-----30.00+0.03 40.8- 34.5---